Кочёво

Россия / Пермский край     59°35′52″N   54°18′45″E
темп.,
°C
ветер,
м/с
пор.,
м/с
влажн.,
%
обл.,
%
осадки,
мм/ч
давл.,
гПа
погр.,
м
15 апреля, чт
чт1523:00+9юз4148710 0.0 1023432
02:00+9юз4148964 0.0 1021466
05:00+8юз413885 0.0 1020321
08:00+8юз3128851 0.0 1019359
11:00+13з377413 0.0 1019556
14:00+15зсз356694 0.0 10181201
17:00+5с51086100 0.1 1022569
20:00+4с3985100 0.1 1024626
16 апреля, пт
пт1623:00+4с3985100 0.1 1026762
02:00+1с297626 0.0 1027324
05:00−1ссв29845 0.0 1029252
08:00+1св37720 0.0 1031337
11:00+4св23485 0.0 1031873
14:00+7ссв22395 0.0 10301235
17:00+7ссз23375 0.0 10291432
20:00+4ссз256142 0.0 1029117
17 апреля, сб
сб1723:00+2сз227011 0.0 103015
02:000зсз22805 0.0 103020
05:000сз22845 0.0 103032
08:00+2сз25775 0.0 1030193
11:00+6сз356171 0.0 10291298
14:00+7сз465583 0.1 10281405
17:00+8сз4748100 0.1 10271605
20:00+6зсз496398 0.0 1025369
18 апреля, вс
вс1823:00+4зсз4127410 0.0 1025525
02:00+3зсз513775 0.0 1023601
05:00+2сз5138152 0.0 1023897
08:000с5106677 0.4 10261009
11:00+1ссв5751100 0.4 10281702
14:00+4ссв5737100 0.0 10302148
17:00+4ссв5733100 0.0 10312247
20:00+2св37445 0.0 1033592
19 апреля, пн
пн1923:00−1св26645 0.0 1035187
02:00−2св23675 0.0 1036106
05:00−3св11675 0.0 103732
08:00−1св12585 0.0 1038317
11:00+2ссв22385 0.0 10381359
14:00+5с22295 0.0 10371618
17:00+5с22297 0.0 10351709
20:00+3с114554 0.0 103514